Torna al catalogo

SL-8 DEB

AttivoLEO
NORAD 21955·DEBRIS·🇷🇺 Russia

Lanciato Feb 12, 1991 da Plesetsk Cosmodrome

Loading…

Prossimi Passaggi (prossime 24 ore)

TLE

AggiornatoSource: Space-Track

Epoca: Sep 14, 2026, 06:04 UTC

1 21955U 91009CF  26257.25339192 -.00000158  00000-0 -15486-2 0  9999
2 21955  74.3082 342.4255 0162278 279.4830 108.0055 12.08387531566051

Traccia SL-8 DEB in tempo reale con AllMySat

Download on the App Store